Regional Weather Roundup
Issued by NWS

Home | Current Version | Previous Version | Graphics & Text | Print | Product List | Glossary On
Versions: 1 2 3 4 5 6 7 8 9 10 11 12 13 14 15 16 17 18 19 20 21 22 23 24 25 26 27
000
ASUS45 KSLC 290910
RWRUT

UTAH REGIONAL WEATHER ROUNDUP
NATIONAL WEATHER SERVICE SALT LAKE CITY UT
300 AM MDT THU SEP 29 2016

UTZ001>011-023>025-291000-

NORTHERN UTAH

CITY           SKY/WX    TMP DP  RH WIND       PRES   REMARKS
BRIGHAM CITY     N/A     59  51  74 W3        30.17S
HILL AFB       NOT AVBL
LOGAN          MOCLDY    52  50  93 NW5       30.19F
OGDEN          PTCLDY    60  50  69 S12       30.17F
PROVO AIRPORT  MOCLDY    59  52  77 CALM      30.22S
SALT LAKE CITY MOCLDY    63  51  65 SE8       30.17F
VERNAL         CLOUDY    59  51  75 NW3       30.29F
WENDOVER       PTCLDY    61  46  59 CALM      30.17R
HEBER CITY     MOCLDY    52  45  76 CALM      30.26S
WEST JORDAN    MOCLDY    60  47  63 SW5       30.20F

$$

UTZ012>022-026-027-291000-

SOUTHERN/CENTRAL UTAH

CITY           SKY/WX    TMP DP  RH WIND       PRES   REMARKS
BLANDING       CLOUDY    60  51  73 CALM      30.44R
BRYCE CANYON   MOCLDY    47  45  93 NE3       30.42S
CEDAR CITY     PTCLDY    55  45  68 N6        30.27R
DELTA          PTCLDY    55  45  67 S6        30.23R
MILFORD        CLEAR     52  45  77 S6        30.24R
MOAB/CYNLANDS  CLOUDY    65  45  48 W9        30.25R
PRICE          CLOUDY    63  42  46 E3        30.32R
ST GEORGE      PTSUNNY   68  50  52 CALM      30.18R

$$

REGIONAL REPORTS     COLORADO/ARIZONA

CITY           SKY/WX    TMP DP  RH WIND       PRES   REMARKS
CRAIG, CO      CLOUDY    45  36  70 CALM      30.36R
GRAND JUNCTION MOCLDY    63  42  46 E5        30.26S
RIFLE          CLOUDY    54  43  66 E3        30.33R
MONTROSE       CLOUDY    59  40  49 S7        30.36R
CORTEZ         CLOUDY    56  49  77 CALM      30.39R
PAGE, AZ       CLOUDY    62  58  86 CALM      30.28S
GRAND CANYON   LGT RAIN  54  50  86 E7        30.38R
KINGMAN        MOCLDY    64  46  52 CALM      30.15S
FLAGSTAFF      CLOUDY    50  50 100 CALM      30.39S

$$

REGIONAL REPORTS    NEVADA/IDAHO/WYOMING

CITY           SKY/WX    TMP DP  RH WIND       PRES   REMARKS
LAS VEGAS, NV  MOCLDY    74  46  36 CALM      30.07R
ELY            MOCLDY    52  39  61 S8        30.28R
ELKO           MOCLDY    65  38  36 W8        30.15R
POCATELLO, ID  PTCLDY    66  44  45 NW9       30.14S
BURLEY         MOCLDY    60  48  64 CALM      30.08F
EVANSTON, WY   CLOUDY    55  39  54 S6        30.35S
ROCK SPRINGS   CLOUDY    57  39  51 S5        30.36R

$$




USA.gov is the U.S. government's official web portal to all federal, state and local government web resources and services.